Regional Weather Roundup
Issued by NWS

Home | Current Version | Previous Version | Text Only | Print | Product List | Glossary Off
Versions: 1 2 3 4 5 6 7 8 9 10 11 12 13 14 15 16 17 18 19 20 21 22 23 24 25 26 27 28 29 30 31 32 33 34 35 36 37 38 39 40 41 42 43 44 45 46 47 48 49 50

000
ASUS43 KOAX 260910
RWRNE

WEATHER ROUNDUP FOR NEBRASKA
NATIONAL WEATHER SERVICE OMAHA NE
400 AM CDT MON JUN 26 2017

NOTES: SATELLITE DATA IS BEING USED TO AUGMENT CLOUD COVER ABOVE
       12000 FEET.
       "FAIR" INDICATES FEW OR NO CLOUDS BELOW 12,000 FEET WITH NO
       SIGNIFICANT WEATHER AND/OR OBSTRUCTIONS TO VISIBILITY.

  * THESE STATIONS DO NOT REPORT WEATHER SUCH AS RAIN...SNOW OR FOG.

NEZ001>004-019>022-054>056-261000-
NEBRASKA PANHANDLE

CITY           SKY/WX    TMP DP  RH WIND       PRES   REMARKS
SCOTTSBLUFF    CLEAR     56  51  84 N7        30.23S
ALLIANCE       CLEAR     50  48  93 SE5       30.23S
CHADRON        CLEAR     49  39  68 E3        30.24R
GORDON         PTSUNNY   51  40  68 E5        30.23F
KIMBALL        CLEAR     55  54  99 W7        30.27F
SIDNEY         CLEAR     52  51  97 W5        30.25F
$$

NEZ057>060-069>072-079>082-261000-
SOUTHWEST NEBRASKA

CITY           SKY/WX    TMP DP  RH WIND       PRES   REMARKS
NORTH PLATTE   CLEAR     53  51  93 CALM      30.23S
IMPERIAL       CLEAR     57  55  93 S6        30.23F
LEXINGTON      PTCLDY    57  54  91 SW9       30.24S
MCCOOK         CLOUDY    60  58  92 SW13      30.24S
OGALLALA       CLEAR     54  53  94 W5        30.22S
$$

NEZ005>010-023>029-035>040-094-261000-
NORTH CENTRAL NEBRASKA

CITY           SKY/WX    TMP DP  RH WIND       PRES   REMARKS
VALENTINE      CLEAR     56  40  55 NE13      30.21R
AINSWORTH      CLOUDY    58  54  85 NW6       30.19S
BROKEN BOW     MOCLDY    57  52  83 W7        30.21S
O`NEILL        CLEAR     57  51  79 N7        30.19R
ORD            CLEAR     57  50  77 SW7       30.18F
THEDFORD       MOCLDY    58  54  86 SW6       30.21F
$$

NEZ041-046>049-061>064-073>077-083>087-261000-
SOUTH CENTRAL NEBRASKA

CITY           SKY/WX    TMP DP  RH WIND       PRES   REMARKS
GRAND ISLAND   CLOUDY    61  54  77 SW12      30.22S
AURORA         CLOUDY    59  52  76 W10       30.21S
HASTINGS       CLOUDY    60  53  77 W9        30.24S
HEBRON         CLOUDY    59  53  78 W5        30.21S
HOLDREGE       PTCLDY    55  53  92 SW8       30.24S
KEARNEY *      CLOUDY    59  52  77 SW10      30.23S
YORK           CLOUDY    59  50  72 SW10      30.20F
$$

NEZ011>018-030>034-042>045-261000-
NORTHEAST NEBRASKA

CITY           SKY/WX    TMP DP  RH WIND       PRES   REMARKS
NORFOLK        PTCLDY    61  47  59 NE12      30.18R
ALBION         PTCLDY    61  49  65 CALM      30.17S
BLAIR          LGT RAIN  58  51  78 CALM      30.19F
FREMONT        CLOUDY    61  48  61 CALM      30.19R
TEKAMAH        CLOUDY    58  47  66 N16       30.23R
WAYNE          CLOUDY    55  53  93 E3        30.20R
$$

NEZ050>053-065>068-078-088>093-261000-
SOUTHEAST NEBRASKA

CITY           SKY/WX    TMP DP  RH WIND       PRES   REMARKS
LINCOLN        CLOUDY    63  52  67 SW8       30.19R
OMAHA EPPLEY   LGT RAIN  60  51  72 S3        30.18R
BEATRICE       CLOUDY    57  53  86 SW7       30.20S
FALLS CITY     CLEAR     51  49  92 E3        30.18F
NEBRASKA CITY  PTCLDY    56  54  92 SW10      30.18F
PLATTSMOUTH    CLOUDY    59  51  74 N3        30.19R
$$

NEZ044-045-051>053-067-261000-
OMAHA AREA

CITY           SKY/WX    TMP DP  RH WIND       PRES   REMARKS
OMAHA EPPLEY   LGT RAIN  60  51  72 S3        30.18R
BLAIR          LGT RAIN  58  51  78 CALM      30.19F
FREMONT        CLOUDY    61  48  61 CALM      30.19R
MILLARD        CLOUDY    64  51  62 CALM      30.19R
OFFUTT AFB     CLOUDY    57  52  83 NE3       30.20R
PLATTSMOUTH    CLOUDY    59  51  74 N3        30.19R
WAHOO          PTSUNNY   58  48  69 NE3       30.19R
$$




USA.gov is the U.S. government's official web portal to all federal, state and local government web resources and services.